www.pogodaiklimat.ru

ПОГОДА в Николае, AK

  • Прогноз погоды в Николае
  • Монитор погоды в Николае
  • Климат в Николае

АРХИВ ПОГОДЫ в Николае

Время (UTC), дата Ветер
(напр.,м/с)
 
Видим.   Явления Облачность Т
(С)
Тd
(С)
f
(%)
Тe
(С)
Тes
(С)
Комфортность

P
(гПа)

Po
(гПа)
Тmin
(С)
Tmax
(С)
R
(мм)
SD
(см)
07:01 23.03 В  6
{10} 
16 км    ясно  +2.8  -4.4  59  -3  -3    1002.2  985.0         
08:01 23.03 В  6
{10} 
16 км    ясно  +1.1  -5.6  61  -5  -5    1002.7  985.7         
09:01 23.03 В  6
{9} 
16 км    ясно  +0.6  -6.1  61  -6  -6    1003.0  986.0         
10:01 23.03 В  16 км    ясно  0.0  -5.6  66  -7  -7    1003.6  986.7         
11:01 23.03 В  6
{8} 
16 км    ясно  -0.6  -5.6  69  -7  -7    1003.4  986.4  -0.6  +5.0     
12:01 23.03 В  16 км    ясно  -1.1  -5.6  71  -8  -8    1003.5  986.4         
13:01 23.03 В  8
{11} 
16 км    ясно  -1.1  -6.1  69  -9  -9    1003.7  986.7         
14:01 23.03 СВ  16 км    ясно  -1.1  -5.6  71  -7  -7    1004.2  987.0         
15:01 23.03 В  16 км    ясно  -1.7  -5.6  75  -8  -8    1004.5  987.7         
16:01 23.03 СВ  16 км    ясно  -1.7  -6.1  72  -7  -7    1004.9  988.0         
17:01 23.03 СВ  16 км    ясно  -1.1  -5.6  71  -8  -7    1005.4  988.4  -1.7  -0.6     
18:01 23.03 В  16 км    2/0 3600 м
[средняя] 
-0.6  -5.6  69  -6  -5    1005.9  988.7         
19:01 23.03 СВ  16 км    8/0 3600 м
[средняя] 
0.0  -5.6  66  -5  -4    1006.8  989.7         
20:01 23.03 В  16 км    2/0 3600 м
[средняя] 
+1.7  -5.6  58  -3  0    1007.3  990.4         
21:01 23.03 СВ  16 км    ясно  +2.8  -6.1  52  -0  +4    1008.0  991.0         
22:01 23.03   16 км    ясно  +2.8  -6.1  52  +2  +9    1008.7  991.7         
23:01 23.03   16 км    8/0 3300 м
[средняя] 
+3.9  -5.6  50  +4  +6    1009.2  992.0  -1.1  +3.9     
00:01 24.03 В  16 км    10/0 2850 м
[средняя] 
+3.9  -5.0  52  +2  +3    1009.8  992.7         
01:01 24.03 В  16 км    10/0 3000 м
[средняя] 
+3.9  -5.0  52  +1  +2    1010.5  993.4         
02:01 24.03 В  16 км    10/0 3000 м
[средняя] 
+3.3  -5.0  54  +2  +2    1011.2  994.0         
03:01 24.03   16 км    10/0 2700 м
[средняя] 
+2.8  -5.0  56  +2  +2    1012.2  995.0         
04:01 24.03   16 км    10/0 2100 м
[средняя] 
+2.8  -5.0  56  +2  +2    1013.4  996.0         
05:01 24.03   16 км    10/10 1470 м  +1.1  -4.4  67  0  0    1014.0  996.7  +1.1  +4.4     
06:01 24.03   16 км  слабый дождь  10/10 1440 м  +1.1  -3.3  72  0  0    1014.8  997.4         
07:01 24.03 В  16 км  слабый дождь  10/10 1950 м  +0.6  -2.8  78  -2  -2    1015.4  998.0         
08:01 24.03   16 км  неопределенные осадки  10/10 1110 м  +0.6  -1.7  85  -1  -1    1016.2  999.0         
09:01 24.03   16 км  слабый дождь  10/10 990 м  +0.6  -1.1  88  -1  -1    1016.8  999.7         
10:01 24.03 В  16 км    10/10 1410 м  +0.6  -0.6  92  -4  -4    1017.3  1000.0         
11:01 24.03   16 км    8/8 1290 м  -0.6  -2.2  89  -2  -2    1017.6  1000.4  -0.6  +1.1  0.3   
12:01 24.03   16 км    8/8 1170 м  -1.7  -2.8  92  -3  -3    1017.7  1000.4         
13:01 24.03   16 км    ясно  -3.3  -3.9  96  -5  -5    1017.9  1000.4         
14:01 24.03 В  16 км    ясно  -3.9  -5.0  92  -7  -7    1017.6  1000.4      0.3   
15:01 24.03   16 км    ясно  -4.4  -5.0  96  -6  -6    1017.8  1000.7         
16:01 24.03 СВ  16 км    ясно  -3.9  -4.4  96  -10  -10    1017.2  1000.0         
17:01 24.03 В  16 км    ясно  -1.7  -3.3  89  -7  -6    1016.7  999.4  -4.4  -0.6     
18:01 24.03 СВ  16 км    ясно  +1.7  -2.2  75  -3  -1    1016.5  999.4         
19:01 24.03 В  16 км    ясно  +5.0  -2.8  57  +2  +6    1016.2  999.0         
20:01 24.03 Ю  16 км    ясно  +6.1  -2.2  55  +4  +8    1017.1  999.7         
21:01 24.03 ЮЗ  16 км    ясно  +7.2  -2.2  51  +5  +9    1016.9  999.7         
22:01 24.03 З  16 км    ясно  +7.2  -1.7  53  +5  +10    1016.5  999.0         
23:01 24.03 З  16 км    8/0 3000 м
[средняя] 
+7.8  -1.7  51  +6  +7    1016.7  999.4  -1.7  +8.3     
00:01 25.03 З  16 км    10/2 1470 м
[средняя] 
+7.2  -1.7  53  +4  +5    1016.7  999.4         
01:01 25.03 ЮЗ  7
{10} 
16 км    10/0 2100 м
[средняя] 
+6.7  -2.2  53  +2  +2    1017.7  1000.4         
02:01 25.03 ЮЗ  16 км    10/5 1800 м
[средняя] 
+5.6  0.0  67  +1  +1    1018.5  1001.0         
03:01 25.03 ЮЗ  6
{8} 
16 км    10/2 1650 м
[средняя] 
+5.0  +0.6  73  -0  -0    1018.7  1001.4         
04:01 25.03 ЮЗ  4
{8} 
16 км    10/5 1500 м
[средняя] 
+4.4  +0.6  76  -0  -0    1019.1  1001.7         
05:01 25.03 Ю  16 км    10/0 2550 м
[средняя] 
+3.9  +0.6  79  -0  -0    1019.1  1001.7  +3.9  +8.3     
06:01 25.03 ЮЗ  16 км    10/10 1800 м  +4.4  +0.6  76  -1  -1    1019.5  1002.0         

 

Местоположение метеостанции Nikolai Airport: широта 63.0190 долгота -154.3580 высота над уровнем моря 126 м.

В архиве по умолчанию представлена погода в Николае за последние 1-2 суток. Обновление информации о фактической погоде в базе происходит ежечасно! Архивные данные за месяц целиком и за предыдущие месяцы Вы можете получить, выбрав интересующий диапазон дат из раскрывающегося списка и нажав кнопку "Ввод!".

Внимание! Архив погоды МЕТАР в базе сайта хранится не более 60 дней. Нет смысла пытаться выбрать более раннюю дату.

Внимание! Время в таблицах - всемирное. Для получения местного времени необходимо прибавить поправку, которая в Николае равна -9 ч.

Ветер - указаны скорость ветра в м/с и направление, откуда дует ветер: С - северный, СВ - северо-восточный, В - восточный, ЮВ - юго-восточный, Ю - южный, ЮЗ - юго-западный, З - западный, СЗ - северо-западный.
Видимость - горизонтальная дальность видимости в метрах или километрах. При видимости от 1 до 10 км при отсутствии осадков обычно наблюдается дымка, при ухудшении видимости до 1 км и менее - туман. В сухую погоду видимость может ухудшаться дымом, пылью или мглою.
Атмосферные явления - указаны явления, наблюдавшиеся в указанный момент времени.
Облачность - указаны через наклонную черту верхняя и нижняя облачность в баллах и высота нижней границы облаков в метрах. Внимание: облачность, как и прочие метеорологические величины в США измеряются автоматическими метеостанциями. Указанные значения в баллах носят условный характер и показывают процент времени, в течение которого, в среднем, лазерный луч высотомера отражался от облаков обратно.
T - Температура воздуха - температура, измеренная на высоте 2 м над землей.
Td - Температура точки росы - температура, при понижении до которой содержащийся в воздухе водяной пар достигнет насыщения.
f - Относительная влажность воздуха - влажноcть воздуха, измеренная на высоте 2 м над землей.
Te - Эффективная температура - температура, которую ощущает одетый по сезону человек в тени. Характеристика душности погоды. При расчете учитывается влияние влажности воздуха и скорости ветра на теплоощущения человека.
Tes - Эффективная температура на солнце - температура, которую ощущает человек, с поправкой на солнечный нагрев. Характеристика знойности погоды. Зависит от высоты солнца над горизонтом, облачности и скорости ветра. Ночью, в пасмурную погоду, а также при ветре 12 м/с и более поправка равна нулю.
P - Атмосферное давление - приведенное к уровню моря атмосферное давление.
Po - Атмосферное давление - измеренное на уровне метеостанции атмосферное давление.
Tmin - Минимальная температура - минимум температуры воздуха на высоте 2 м над землей.
Tmax - Максимальная температура - максимум температуры воздуха на высоте 2 м над землей.
R - Количество осадков - Количество выпавших осадков за 3 или 6 часов, мм.
SD - Снежный покров - Высота снежного покрова, см.